CDT,Max TemperatureF,Mean TemperatureF,Min TemperatureF,Max Dew PointF,MeanDew PointF,Min DewpointF,Max Humidity, Mean Humidity, Min Humidity, Max Sea Level PressureIn, Mean Sea Level PressureIn, Min Sea Level PressureIn, Max VisibilityMiles, Mean VisibilityMiles, Min VisibilityMiles, Max Wind SpeedMPH, Mean Wind SpeedMPH, Max Gust SpeedMPH,PrecipitationIn, CloudCover, Events, WindDirDegrees
2013-9-1,82,71,60,69,63,57,97,70,43,29.94,29.83,29.73,10,10,7,23,11,28,0.00,0,,319
2013-9-2,75,63,51,58,55,50,100,73,46,30.06,30.02,29.95,10,10,10,15,8,21,0.00,1,,352
2013-9-3,79,62,44,57,49,43,100,70,39,30.14,30.08,30.03,10,7,0,7,2,9,0.00,1,Fog,290
2013-9-4,89,71,53,66,59,52,93,66,38,30.14,30.10,30.06,10,10,10,9,3,14,0.00,0,,240
2013-9-5,91,78,64,71,65,61,97,70,43,30.18,30.14,30.11,10,10,10,7,4,8,0.00,1,,46
2013-9-6,90,76,62,67,62,58,100,69,37,30.13,30.04,29.93,10,10,9,16,8,20,0.00,0,,161
2013-9-7,92,81,69,72,67,59,93,70,47,29.93,29.89,29.84,10,10,8,9,7,12,0.00,0,,240
2013-9-8,82,76,70,70,69,68,97,81,65,29.98,29.89,29.84,10,8,5,18,11,24,0.00,4,,74
2013-9-9,100,84,68,70,65,60,100,65,29,29.83,29.80,29.75,10,8,3,22,9,30,0.00,0,,193
2013-9-10,97,82,66,67,63,60,81,57,33,30.00,29.92,29.84,10,10,10,24,8,33,T,1,Thunderstorm,231
2013-9-11,84,74,63,68,65,61,93,70,47,30.08,30.04,29.98,10,9,2,16,3,20,0.32,3,Rain-Thunderstorm,308
2013-9-12,77,65,53,63,53,46,100,68,36,30.18,30.13,30.04,10,10,10,21,10,26,0.00,0,,339
2013-9-13,71,59,46,49,46,43,93,64,35,30.26,30.19,30.13,10,10,10,10,5,14,0.00,0,,36
2013-9-14,77,59,41,48,43,39,93,61,29,30.14,30.05,29.91,10,10,10,16,8,23,T,1,Rain,156
2013-9-15,68,60,51,60,54,48,93,75,56,30.24,30.02,29.86,10,10,4,18,8,24,0.04,7,Rain,20
2013-9-16,68,59,50,54,51,48,100,79,58,30.38,30.32,30.25,10,8,0,13,6,16,0.00,5,Fog,75
2013-9-17,63,57,50,62,55,47,100,93,86,30.27,30.14,30.01,10,6,2,16,10,24,0.17,6,Rain,130
2013-9-18,89,76,63,69,66,62,100,74,47,30.00,29.87,29.75,10,6,2,21,11,26,0.02,5,Rain-Thunderstorm,166
2013-9-19,87,77,66,72,68,64,100,76,51,29.84,29.78,29.70,10,8,1,23,9,33,0.99,5,Rain-Thunderstorm,243
2013-9-20,67,57,47,66,53,45,100,79,58,29.97,29.92,29.84,10,10,6,23,12,29,0.00,5,,297
2013-9-21,70,56,42,49,45,41,96,67,37,30.03,29.97,29.91,10,10,10,14,5,20,0.00,0,,320
2013-9-22,77,61,45,52,48,44,100,71,41,30.01,29.95,29.90,10,10,10,16,8,21,0.00,0,,139
2013-9-23,76,63,49,51,49,46,89,64,38,29.99,29.93,29.88,10,10,10,23,11,26,0.00,0,,136
2013-9-24,73,62,50,56,51,47,89,71,53,29.91,29.89,29.87,10,10,10,17,9,28,T,0,,95
2013-9-25,77,64,50,54,52,48,93,68,43,29.96,29.90,29.86,10,10,6,16,8,20,0.00,0,,98
2013-9-26,84,70,55,60,56,51,86,65,43,29.96,29.92,29.87,10,10,8,24,12,30,0.00,0,,137
2013-9-27,85,73,61,62,59,58,90,67,43,29.99,29.93,29.88,10,10,7,24,13,31,0.00,0,,147
2013-9-28,70,59,47,65,56,46,93,83,72,30.04,29.89,29.79,10,9,3,23,11,32,0.14,5,Rain,240
2013-9-29,74,57,39,51,44,38,100,67,33,30.08,30.01,29.93,10,10,8,18,6,22,0.00,0,,181
2013-9-30,77,63,48,57,49,46,93,65,36,29.94,29.84,29.74,10,10,10,22,12,29,0.00,0,,175